Wind_Speed
24 24 24 25 24 24 24 24 25 25 24 22 22 23 22 21 21 20 19 18 18 19 18 19 18 18 18 19 18 18 17 17 17 17 18 18 18 18 17 17 18 18 18 18
23 24 25 26 26 27 27 28 28 27 26 24 22 23 24 24 24 24 23 22 22 22 22 21 22 22 20 20 20 20 19 18 18 19 19 20 21 21 19 19 20 20 20 21
24 25 26 27 26 27 28 28 29 29 28 27 26 25 26 26 27 26 24 24 24 24 24 24 24 24 23 23 22 22 22 21 21 21 21 22 22 22 21 21 22 22 22 22
27 27 28 27 28 28 29 29 29 29 29 29 29 29 29 29 29 28 26 25 25 25 25 25 26 25 25 25 24 24 24 23 22 22 23 23 23 23 23 23 24 24 24 24
28 28 29 28 29 29 30 30 30 30 31 31 30 30 30 30 30 29 28 27 27 26 27 27 27 27 26 26 25 24 24 25 25 25 25 25 25 25 24 25 25 26 26 27
30 30 30 29 29 30 31 32 32 32 32 32 32 33 32 32 32 32 31 30 29 28 28 28 27 27 26 27 27 26 26 27 27 27 27 26 26 27 28 28 28 28 28 29
31 32 32 30 30 30 32 33 33 33 32 33 33 34 33 33 33 32 32 33 32 30 29 29 28 28 27 28 28 28 29 28 28 28 28 28 28 29 29 30 30 30 30 30
31 33 33 30 31 32 33 33 33 32 33 34 34 34 34 35 35 35 34 33 32 32 31 30 30 30 30 30 30 30 30 30 30 30 30 30 31 31 31 31 32 32 31 31
31 32 32 31 31 32 33 33 32 32 32 34 35 36 35 37 37 36 35 34 35 34 33 32 32 32 32 31 31 32 32 32 32 32 32 32 33 33 33 33 32 32 32 32
32 32 32 32 32 32 32 32 32 33 34 34 35 37 37 36 37 37 35 35 35 34 34 33 33 34 34 33 33 34 34 34 34 34 34 34 34 34 34 33 33 33 33 33
33 32 32 32 32 32 33 34 34 33 35 36 36 36 37 37 37 37 37 35 36 36 35 34 34 34 35 34 34 34 34 35 36 36 36 35 35 35 34 34 34 33 33 33
33 33 33 33 33 33 34 34 35 35 34 35 36 35 35 36 36 36 37 37 36 37 37 36 36 35 35 34 34 34 34 35 35 34 34 34 34 34 35 34 34 33 33 33
32 33 33 33 33 33 34 34 35 35 36 35 35 36 36 37 37 37 38 38 37 37 37 36 36 35 34 33 34 34 34 34 34 34 33 34 34 33 34 33 33 33 32 32
30 31 32 32 32 33 34 34 35 36 36 36 35 36 37 37 37 37 37 37 38 38 37 36 36 35 34 34 34 33 33 33 33 33 33 33 33 33 32 32 31 31 31 31
30 30 31 31 32 33 34 35 35 35 36 36 36 36 36 37 36 36 36 36 36 37 37 36 36 36 35 34 33 33 33 32 32 32 32 32 31 31 31 30 31 31 30 31
28 30 31 31 32 32 34 34 34 34 35 35 35 35 35 35 35 35 35 36 35 35 35 35 35 34 34 34 33 33 33 33 32 32 31 31 30 30 30 30 31 31 31 31
28 29 30 30 30 30 31 32 32 32 32 32 33 33 33 33 33 33 33 34 34 33 33 33 33 33 33 33 33 32 31 31 31 31 31 31 31 31 30 29 30 30 31 31
25 26 27 28 27 28 29 29 30 30 30 31 31 31 30 30 31 31 30 31 31 31 31 32 32 32 31 31 31 30 30 30 30 31 30 30 30 30 29 29 29 29 29 30
24 25 25 26 26 26 27 27 28 28 28 29 29 29 29 29 29 29 29 30 30 30 30 31 31 31 30 30 29 28 27 28 28 29 29 29 29 29 28 28 28 28 29 29
22 22 23 24 24 25 25 25 25 26 25 26 26 26 27 28 28 28 27 27 28 28 27 28 28 29 28 27 27 27 27 27 27 28 28 27 26 26 27 27 27 28 28 28
20 21 22 22 22 23 24 24 24 24 23 23 24 24 24 24 24 25 25 25 25 25 24 24 25 25 25 25 26 26 25 26 27 27 26 26 26 26 26 26 26 27 27 28
19 20 21 21 21 22 22 22 21 21 21 21 21 21 22 22 22 22 22 22 22 22 22 22 23 23 23 23 24 25 25 25 26 26 25 25 25 25 24 24 25 26 26 26
18 19 20 20 19 19 19 19 19 19 19 19 19 18 19 19 19 19 21 21 20 20 21 21 21 22 23 23 23 25 25 25 25 25 24 24 24 24 24 24 24 24 24 23
18 19 19 18 17 17 16 17 16 16 17 17 17 18 17 17 17 17 16 17 18 18 19 20 21 22 23 23 23 24 24 24 23 23 23 23 24 24 23 23 23 23 23 22
16 16 16 16 15 15 14 14 14 14 15 15 15 15 14 13 13 13 13 13 14 16 18 18 19 20 21 22 23 23 23 22 22 23 23 23 23 23 23 23 23 22 22 23
13 14 13 13 12 12 12 12 12 12 11 11 11 11 11 11 12 12 12 13 14 15 15 16 18 18 19 20 21 22 21 21 21 20 20 20 20 20 21 21 21 21 22 23
12 12 12 11 10 10 10 10 10 10 10 10 10 9 9 10 11 12 12 12 12 12 13 14 15 16 18 18 18 18 18 18 17 17 18 18 18 18 19 20 21 21 21 22
Wind_Direction
240 237 237 238 240 242 246 249 250 254 257 259 262 265 267 270 268 266 272 274 272 271 275 280 282 283 282 284 285 285 285 286 287 287 288 288 289 291 291 290 289 289 289 290
242 241 242 244 244 244 246 249 253 255 256 259 262 261 263 267 270 270 274 272 269 270 272 276 279 279 277 278 279 281 283 283 283 285 286 287 288 289 288 290 291 290 292 291
244 242 243 244 246 246 246 247 250 254 256 258 260 261 263 265 269 274 274 272 271 271 273 276 278 275 275 276 276 278 279 281 282 283 283 285 287 287 288 289 289 290 291 290
247 245 244 245 247 251 250 249 251 254 255 258 259 260 262 264 268 271 268 269 269 271 273 275 276 275 275 274 275 277 278 280 280 281 281 282 284 285 285 287 288 288 288 288
248 248 247 247 249 252 252 251 252 253 254 256 259 260 261 264 268 270 270 270 269 270 271 273 274 275 274 273 274 276 278 280 281 282 283 282 282 283 284 285 286 286 287 287
250 250 250 250 251 254 255 254 252 252 253 257 260 261 262 264 267 269 268 268 268 269 269 269 271 271 272 273 275 276 277 279 279 281 281 280 281 282 282 282 283 284 285 286
251 253 254 254 254 254 256 258 257 257 257 258 259 262 263 263 264 266 267 268 268 268 267 267 269 271 272 272 274 275 275 276 277 278 278 279 280 282 283 282 282 283 284 284
252 254 256 256 257 256 258 259 260 260 261 261 262 263 264 264 265 267 268 267 267 268 267 267 269 271 272 273 274 275 275 275 275 277 277 278 279 280 281 282 283 282 282 282
255 257 259 258 258 259 259 260 261 262 263 264 264 264 265 265 266 267 268 267 267 267 267 268 267 269 271 272 272 273 274 275 275 276 276 276 277 279 280 281 281 282 281 281
257 259 261 261 260 261 262 262 264 265 265 266 266 264 264 265 265 266 267 267 266 267 267 266 267 270 272 272 273 273 273 273 274 274 274 274 276 277 278 279 280 281 281 280
259 261 262 261 261 264 265 265 266 266 266 266 266 265 264 264 265 265 264 266 268 268 267 267 269 270 270 271 272 273 273 274 275 275 274 274 275 276 277 278 279 279 279 279
260 262 263 264 264 266 266 266 266 267 266 266 268 267 265 264 264 265 265 265 267 268 268 269 269 270 270 271 271 272 273 275 275 275 275 275 275 275 276 276 277 277 276 276
261 262 263 265 266 267 267 267 268 269 269 269 268 267 266 264 263 263 264 264 265 266 268 269 269 270 268 269 270 271 272 273 274 275 275 274 274 275 275 275 275 274 275 276
262 263 263 264 266 266 267 268 269 270 270 269 269 268 267 266 264 264 263 265 265 265 266 269 270 269 270 270 270 271 271 272 273 274 274 274 274 275 274 274 274 275 276 278
263 265 265 265 266 267 268 269 269 270 269 269 267 267 266 265 265 263 262 264 265 264 264 267 270 270 271 271 271 271 270 270 271 272 273 273 274 275 275 275 276 276 276 279
265 266 267 268 268 268 268 269 270 271 270 269 268 266 265 265 264 263 262 263 264 264 264 266 268 269 270 271 271 271 270 270 269 269 271 272 272 273 275 275 276 276 278 280
266 268 269 270 270 270 270 270 270 271 270 270 269 266 263 264 264 263 262 262 263 264 265 265 266 268 269 269 270 271 271 270 270 271 270 270 271 272 273 274 275 276 277 279
266 269 270 271 271 272 272 272 272 272 272 271 268 265 263 264 265 265 265 264 265 267 266 265 266 267 267 267 269 270 270 270 271 272 269 270 270 269 271 273 275 277 279 280
269 271 272 273 275 276 274 274 275 275 274 271 269 268 266 264 264 264 265 264 265 266 264 264 264 265 265 266 268 269 270 270 271 270 270 270 271 272 273 275 277 278 279 281
270 271 273 275 276 277 278 278 277 276 275 271 269 269 267 265 263 262 261 262 264 264 262 261 262 262 263 264 266 270 272 272 271 270 272 272 273 273 274 276 277 278 278 279
272 274 275 275 277 278 277 277 276 275 275 273 272 271 269 267 264 262 260 261 262 260 260 259 259 261 263 265 266 269 273 274 274 273 272 273 275 276 277 278 277 277 278 279
274 277 279 279 279 278 277 275 274 275 275 274 274 272 269 267 267 264 261 262 260 257 257 258 259 261 265 266 267 269 273 276 276 277 274 273 275 278 279 279 278 278 279 282
279 282 284 282 282 281 279 277 275 276 276 274 272 273 276 273 271 269 264 261 260 257 257 258 259 261 265 267 270 273 275 276 276 277 276 275 276 277 279 279 280 281 284 286
282 285 286 285 282 281 279 277 276 276 274 273 274 277 278 275 271 272 268 264 264 261 259 259 261 263 265 267 271 274 276 276 275 277 279 278 277 277 278 278 279 281 282 284
282 284 285 284 280 278 276 274 276 276 278 277 276 278 277 273 272 271 268 264 263 265 265 263 263 264 266 268 273 277 278 277 277 277 277 277 277 277 278 279 281 282 284 286
281 284 287 286 282 278 277 276 273 274 277 275 274 275 273 271 273 274 274 271 267 269 271 270 270 270 270 273 277 277 276 277 278 279 280 281 280 279 279 280 280 282 284 285
279 281 285 286 280 275 273 272 266 265 273 279 280 276 274 275 276 275 274 272 273 275 275 275 277 277 275 277 282 284 281 282 284 284 286 288 288 286 284 282 283 284 286 288
Height
5865 5867 5869 5870 5872 5874 5875 5875 5877 5878 5879 5880 5881 5881 5882 5882 5882 5882 5883 5883 5883 5884 5885 5884 5884 5884 5884 5883 5882 5881 5880 5880 5879 5878 5877 5876 5875 5874 5873 5871 5870 5869 5867 5866
5859 5860 5862 5864 5866 5867 5869 5870 5870 5872 5873 5874 5875 5875 5876 5876 5876 5876 5877 5877 5878 5878 5878 5878 5878 5878 5878 5877 5877 5876 5875 5874 5873 5872 5871 5870 5869 5868 5867 5866 5864 5863 5862 5860
5852 5853 5855 5857 5859 5860 5861 5862 5864 5865 5867 5867 5868 5869 5869 5869 5870 5870 5870 5870 5870 5870 5871 5871 5871 5870 5870 5870 5870 5869 5868 5867 5866 5866 5865 5864 5863 5861 5860 5859 5858 5857 5855 5853
5844 5847 5848 5852 5851 5852 5853 5855 5856 5858 5858 5859 5860 5861 5862 5862 5863 5863 5863 5863 5863 5863 5863 5863 5863 5862 5862 5862 5862 5862 5861 5860 5859 5859 5858 5857 5856 5855 5854 5852 5851 5850 5848 5846
5837 5839 5841 5843 5844 5845 5845 5847 5849 5849 5850 5851 5851 5852 5853 5854 5854 5855 5855 5854 5855 5856 5855 5855 5855 5854 5854 5854 5854 5854 5853 5853 5852 5851 5850 5850 5849 5848 5846 5845 5844 5842 5840 5839
5830 5831 5832 5837 5837 5837 5838 5839 5841 5841 5842 5843 5844 5844 5845 5846 5846 5846 5847 5847 5847 5847 5847 5847 5846 5846 5846 5846 5846 5846 5845 5845 5844 5843 5842 5842 5841 5840 5838 5837 5836 5834 5832 5830
5821 5822 5824 5827 5829 5830 5831 5832 5832 5832 5833 5834 5835 5836 5836 5837 5837 5837 5837 5837 5837 5837 5838 5838 5838 5837 5837 5837 5837 5837 5837 5836 5835 5835 5833 5833 5832 5831 5829 5828 5827 5825 5824 5822
5813 5814 5818 5818 5819 5821 5821 5822 5823 5824 5824 5825 5826 5826 5826 5827 5827 5828 5828 5828 5827 5827 5828 5829 5829 5828 5828 5828 5828 5828 5827 5827 5826 5825 5824 5823 5822 5821 5820 5819 5817 5815 5814 5812
5806 5808 5808 5809 5810 5811 5812 5813 5814 5815 5815 5816 5816 5816 5817 5817 5817 5817 5817 5818 5818 5818 5818 5819 5819 5818 5819 5818 5818 5818 5818 5817 5816 5816 5815 5813 5812 5811 5810 5808 5807 5805 5804 5803
5796 5797 5799 5800 5800 5801 5802 5803 5803 5804 5805 5805 5805 5806 5806 5806 5807 5807 5807 5807 5807 5808 5809 5809 5809 5809 5809 5808 5807 5807 5807 5807 5806 5805 5804 5803 5802 5800 5799 5798 5797 5796 5794 5793
5787 5789 5789 5790 5790 5791 5792 5793 5793 5793 5794 5794 5794 5795 5795 5795 5796 5796 5796 5797 5796 5797 5798 5798 5798 5798 5798 5797 5797 5797 5796 5796 5795 5794 5793 5792 5791 5790 5789 5788 5787 5786 5784 5782
5779 5780 5780 5781 5781 5782 5782 5782 5783 5783 5783 5783 5783 5784 5784 5784 5785 5785 5785 5786 5785 5786 5786 5786 5787 5787 5786 5785 5785 5785 5785 5784 5783 5783 5782 5781 5780 5779 5777 5777 5776 5775 5773 5772
5769 5770 5770 5771 5771 5772 5772 5772 5772 5772 5772 5772 5772 5772 5772 5772 5773 5773 5774 5774 5775 5775 5775 5775 5775 5775 5774 5773 5774 5774 5773 5773 5772 5772 5771 5770 5769 5768 5767 5766 5765 5764 5763 5761
5759 5760 5760 5761 5761 5761 5761 5761 5761 5761 5761 5761 5761 5761 5760 5760 5761 5761 5762 5763 5763 5763 5764 5763 5763 5764 5763 5763 5763 5763 5762 5761 5761 5761 5760 5759 5758 5757 5756 5755 5754 5753 5753 5751
5751 5751 5750 5751 5751 5751 5750 5750 5750 5750 5750 5750 5750 5749 5749 5749 5750 5750 5751 5751 5751 5752 5752 5753 5753 5753 5753 5753 5752 5752 5752 5751 5751 5750 5749 5749 5748 5747 5746 5745 5745 5744 5743 5741
5742 5741 5741 5741 5741 5740 5740 5740 5739 5739 5738 5738 5738 5738 5738 5738 5738 5738 5739 5739 5740 5740 5741 5742 5742 5743 5743 5742 5742 5742 5741 5741 5740 5740 5739 5739 5738 5737 5736 5736 5735 5734 5733 5732
5733 5732 5732 5731 5731 5730 5730 5729 5728 5728 5727 5727 5727 5727 5727 5727 5727 5728 5728 5728 5728 5728 5730 5731 5732 5733 5733 5733 5733 5732 5732 5731 5730 5729 5729 5729 5728 5727 5727 5726 5726 5725 5724 5723
5724 5724 5723 5723 5722 5721 5720 5719 5719 5718 5717 5717 5716 5717 5717 5717 5717 5718 5718 5718 5718 5719 5720 5721 5722 5723 5723 5723 5723 5723 5722 5721 5720 5720 5719 5718 5718 5718 5717 5717 5717 5716 5715 5714
5717 5716 5716 5715 5714 5713 5712 5711 5710 5709 5708 5707 5707 5707 5707 5708 5708 5708 5709 5709 5709 5710 5711 5712 5713 5713 5714 5714 5714 5714 5713 5713 5711 5710 5710 5709 5709 5709 5708 5708 5708 5707 5706 5705
5710 5709 5708 5707 5706 5705 5704 5703 5702 5701 5700 5699 5699 5699 5699 5700 5700 5700 5700 5700 5701 5701 5702 5703 5704 5705 5705 5706 5705 5705 5704 5703 5703 5702 5702 5702 5701 5700 5700 5700 5699 5698 5697 5696
5703 5702 5701 5701 5700 5698 5697 5696 5695 5694 5693 5692 5692 5692 5692 5692 5692 5691 5691 5692 5693 5693 5693 5694 5696 5697 5698 5698 5698 5697 5696 5696 5696 5695 5694 5694 5693 5692 5691 5691 5690 5689 5688 5687
5697 5696 5695 5694 5693 5692 5691 5689 5688 5688 5687 5686 5686 5686 5685 5685 5685 5685 5685 5685 5685 5685 5686 5688 5689 5690 5691 5691 5691 5691 5690 5689 5688 5687 5686 5686 5685 5684 5683 5682 5681 5680 5679 5678
5691 5690 5689 5688 5687 5686 5684 5683 5682 5682 5681 5681 5680 5680 5679 5678 5678 5678 5678 5679 5679 5680 5681 5682 5683 5684 5684 5684 5684 5683 5682 5682 5681 5680 5678 5678 5677 5677 5676 5674 5673 5672 5672 5671
5686 5685 5683 5682 5681 5680 5679 5678 5677 5676 5676 5676 5675 5675 5674 5673 5673 5672 5672 5672 5673 5674 5675 5676 5677 5678 5678 5678 5677 5676 5675 5674 5673 5672 5671 5670 5670 5669 5668 5667 5666 5665 5664 5663
5681 5680 5678 5676 5675 5674 5674 5673 5673 5672 5672 5671 5671 5670 5669 5668 5669 5668 5668 5668 5669 5669 5669 5670 5671 5672 5672 5671 5671 5670 5669 5667 5666 5665 5664 5663 5662 5661 5661 5660 5659 5658 5657 5655
5676 5675 5674 5672 5671 5670 5669 5669 5669 5669 5668 5667 5667 5666 5665 5665 5666 5665 5665 5665 5665 5665 5665 5665 5666 5666 5665 5665 5664 5662 5661 5660 5659 5658 5657 5656 5655 5654 5653 5652 5652 5650 5649 5648
5672 5671 5670 5669 5667 5666 5666 5665 5665 5666 5665 5665 5664 5663 5663 5662 5662 5662 5662 5662 5662 5662 5662 5661 5661 5661 5660 5659 5657 5655 5654 5653 5652 5651 5650 5649 5648 5647 5646 5645 5644 5643 5642 5641